Tracking 19854 objects as of 23-Sep-2019
HD Live streaming from Space Station
objects crossing your sky now

DMSP 5D-2 F11 DEB

Track DMSP 5D-2 F11 DEB now!
10-day predictions


NORAD ID: 29088
Int'l Code: 1991-082CH
Perigee: 764.2 km
Apogee: 783.5 km
Inclination: 98.7 °
Period: 100.2 minutes
Semi major axis: 7144 km
RCS: 0.0127 m2 (small)
Launch date: November 28, 1991
Source: United States (US)
Launch site: AIR FORCE WESTERN TEST RANGE (AFWTR)

Note: This is SATELLITE DEBRIS
aabbcc
Your satellite tracking list
Your tracking list is empty




NASA's NSSDC Master Catalog

Two Line Element Set (TLE):
1 29088U 91082CH  19265.95953799  .00001152  00000-0  39926-3 0  9997
2 29088  98.6554 307.9785 0013517 148.7925 211.4067 14.37530367788214
Source of the keplerian elements: AFSPC